Weather History for Skagway, AK

Change the Weather History Date:

Monday, December 31, 2012

  Actual Average Record
Temperature  
Mean Temperature 37 °F -  
Max Temperature 41 °F 28 °F 44 °F (1969)
Min Temperature 33 °F 20 °F -5 °F (1968)
Degree Days  
Heating Degree Days 28    
Moisture  
Dew Point 33 °F    
Average Humidity 86    
Maximum Humidity 100    
Minimum Humidity 73    
Precipitation  
Precipitation 0.02 in - - ()
Sea Level Pressure  
Sea Level Pressure 30.02 in    
Wind  
Wind Speed 8 mph (SSW)    
Max Wind Speed 23 mph    
Max Gust Speed 32 mph    
Visibility 9 miles    
Events Rain    
Averages and records for this station are not official NWS values.
T = Trace of Precipitation, MM = Missing Value Source: NWS Daily Summary

Daily Weather History Graph

Daily Weather History Graph

Search for Another Location

Airport:

Trip Planner

Search our weather history database for the weather conditions in past years. The results will help you decide how hot, cold, wet, or windy it might be!

Date:

Astronomy

Dec. 31, 2012 Rise Set
Actual Time 8:58 AM AKST 3:10 PM AKST
Civil Twilight 8:03 AM AKST 4:05 PM AKST
Nautical Twilight 7:08 AM AKST 5:00 PM AKST
Astronomical Twilight 6:18 AM AKST 5:51 PM AKST
Moon 7:52 PM AKST (12/31) 9:46 AM AKST (12/31)
Length of Visible Light 8h 02m
Length of Day
6h 11m
Waning Gibbous, 89% of the Moon is Illuminated
Dec 31
Waning Gibbous
Jan 4
Last Quarter
Jan 11
New
Jan 18
First Quarter
Jan 26
Full

Hourly Weather History & Observations

Time (AKST) Temp. Windchill Dew Point Humidity Pressure Visibility Wind Dir Wind Speed Gust Speed Precip Events Conditions
12:00 AM 33.8 °F - 33.8 °F 100% 29.78 in 7.0 mi Calm Calm - 0.00 in Rain Light Rain
12:37 AM 33.8 °F - 32.0 °F 93% 29.78 in 7.0 mi Calm Calm - 0.00 in   Overcast
12:49 AM 33.8 °F - 32.0 °F 93% 29.78 in 6.0 mi Calm Calm - 0.00 in   Overcast
12:53 AM 33.1 °F - 32.0 °F 96% 29.79 in 6.0 mi Calm Calm - 0.00 in   Overcast
1:10 AM 33.8 °F - 32.0 °F 93% 29.79 in 6.0 mi Calm Calm - N/A   Overcast
1:53 AM 33.1 °F - 32.0 °F 96% 29.79 in 6.0 mi Calm Calm - N/A   Overcast
3:25 AM 33.8 °F - 32.0 °F 93% 29.82 in 8.0 mi Calm Calm - 0.00 in   Overcast
3:53 AM 34.0 °F - 32.0 °F 92% 29.83 in 10.0 mi Calm Calm - 0.01 in Rain Light Rain
4:53 AM 35.1 °F - 33.1 °F 92% 29.85 in 10.0 mi Calm Calm - 0.00 in   Overcast
5:17 AM 35.6 °F - 33.8 °F 93% 29.87 in 3.0 mi Calm Calm - 0.00 in   Overcast
5:36 AM 33.8 °F 30.8 °F 33.8 °F 100% 29.87 in 3.0 mi NNE 3.5 mph - 0.00 in   Overcast
5:53 AM 34.0 °F 31.0 °F 32.0 °F 92% 29.88 in 4.0 mi NNE 3.5 mph - 0.00 in   Overcast
6:53 AM 37.0 °F 29.3 °F 34.0 °F 89% 29.91 in 10.0 mi SSW 11.5 mph 19.6 mph 0.01 in   Overcast
7:44 AM 37.4 °F 30.3 °F 33.8 °F 87% 29.93 in 10.0 mi South 10.4 mph 18.4 mph N/A   Overcast
7:53 AM 37.9 °F 30.9 °F 34.0 °F 86% 29.94 in 10.0 mi South 10.4 mph 25.3 mph N/A   Overcast
8:40 AM 37.4 °F 29.8 °F 33.8 °F 87% 29.98 in 10.0 mi South 11.5 mph 21.9 mph N/A   Overcast
8:53 AM 37.9 °F 28.5 °F 34.0 °F 86% 29.99 in 10.0 mi SSW 17.3 mph 24.2 mph N/A   Overcast
9:04 AM 37.4 °F 26.9 °F 33.8 °F 87% 29.99 in 10.0 mi SSW 20.7 mph 26.5 mph N/A   Overcast
9:53 AM 39.0 °F 28.8 °F 34.0 °F 82% 30.03 in 10.0 mi SSW 21.9 mph 28.8 mph 0.00 in   Overcast
10:53 AM 39.0 °F 29.6 °F 34.0 °F 82% 30.07 in 10.0 mi SSW 18.4 mph 27.6 mph N/A   Overcast
11:28 AM 39.2 °F 28.7 °F 33.8 °F 81% 30.08 in 10.0 mi SSW 23.0 mph 29.9 mph N/A   Scattered Clouds
11:53 AM 39.0 °F 28.5 °F 34.0 °F 82% 30.09 in 10.0 mi SSW 23.0 mph 29.9 mph N/A   Clear
12:53 PM 39.9 °F 29.7 °F 34.0 °F 79% 30.13 in 10.0 mi SSW 23.0 mph 29.9 mph N/A   Partly Cloudy
1:11 PM 39.2 °F 29.3 °F 33.8 °F 81% 30.12 in 10.0 mi SSW 20.7 mph 26.5 mph N/A   Mostly Cloudy
1:26 PM 39.2 °F 29.6 °F 33.8 °F 81% 30.14 in 10.0 mi SSW 19.6 mph - N/A   Overcast
1:53 PM 39.9 °F 30.2 °F 34.0 °F 79% 30.14 in 10.0 mi SSW 20.7 mph 28.8 mph N/A   Overcast
2:53 PM 39.9 °F 30.5 °F 34.0 °F 79% 30.17 in 10.0 mi SSW 19.6 mph 26.5 mph N/A   Overcast
3:53 PM 39.0 °F 29.0 °F 34.0 °F 82% 30.19 in 10.0 mi SSW 20.7 mph 25.3 mph N/A   Overcast
4:53 PM 39.0 °F 29.0 °F 34.0 °F 82% 30.19 in 10.0 mi SSW 20.7 mph 29.9 mph N/A   Overcast
5:30 PM 39.2 °F 28.7 °F 35.6 °F 87% 30.21 in 10.0 mi SSW 23.0 mph 31.1 mph N/A   Overcast
5:53 PM 39.9 °F 30.2 °F 34.0 °F 79% 30.22 in 10.0 mi SSW 20.7 mph 32.2 mph N/A   Overcast
6:53 PM 39.9 °F 30.2 °F 34.0 °F 79% 30.24 in 10.0 mi SSW 20.7 mph 29.9 mph N/A   Overcast
7:53 PM 41.0 °F 32.2 °F 34.0 °F 76% 30.25 in 10.0 mi SSW 18.4 mph - N/A   Clear
8:53 PM 41.0 °F 34.7 °F 33.1 °F 73% 30.24 in 10.0 mi South 10.4 mph 18.4 mph N/A   Overcast
9:53 PM 41.0 °F 36.4 °F 33.1 °F 73% 30.24 in 10.0 mi South 6.9 mph 18.4 mph N/A   Overcast
10:53 PM 37.0 °F 31.0 °F 32.0 °F 82% 30.23 in 10.0 mi NE 8.1 mph - N/A   Overcast
11:53 PM 39.0 °F 36.8 °F 32.0 °F 76% 30.23 in 10.0 mi NE 3.5 mph - N/A   Overcast